User: anonymous   Login
Location: Elstree
(51.6403°N, 0.2969°W)
Time: 23:25:53
(UTC+00:00)
Language:

Cosmos 1666 - Orbit

View from above orbital plane
View from above orbital plane
View from above satellite
View from above satellite

Ground track
Ground track

The orbit data is extracted from the following two-line orbital elements,

1 15889U 85058A   21128.42570184  .00000577  00000-0  25550-4 0  9992
2 15889  82.4903  23.7576 0017356 151.0386 209.1816 15.19449259957833
Epoch (UTC): 08 May 2021 10:13:00
Eccentricity: 0.0017356
inclination: 82.4903°
perigee height: 495 km
apogee height: 519 km
right ascension of ascending node: 23.7576°
argument of perigee: 151.0386°
revolutions per day: 15.19449259
mean anomaly at epoch: 209.1816°
orbit number at epoch: 95783

The dashed part of the orbit path shows where the satellite is in the earth's shadow,  

DLR